Location: La Silve
(44.2414°N, 5.8889°E)
Time: 17:14:51
(UTC+00:00)

Tiangong - Pass Details

Date: 28 June 2021
Orbit: 373 x 386 km, 41.5° (Epoch: 01 August)

Event Time Altitude Azimuth Distance (km) Brightness Sun altitude
Exits shadow 01:08:55 22° 109° (ESE) 896 2.9 -19.5°
Drops below altitude 10° 01:10:12 10° 99° (E) 1,386 4.0 -19.4°
Sets 01:12:19 0° 94° (E) 2,241 5.2 -19.2°
